User: anonymous   Login
Location: Newark
(44.6303°N, 123.0961°W)
Time: 00:48:13
(UTC+00:00)
Language:

Envisat - Orbit

View from above orbital plane
View from above orbital plane
View from above satellite
View from above satellite

Ground track
Ground track

The orbit data is extracted from the following two-line orbital elements,

1 27386U 02009A   20052.67429116  .00000007  00000-0  15610-4 0  9996
2 27386  98.1398  65.8451 0001204  94.6496  19.1230 14.37971953941830
Epoch (UTC): 21 February 2020 16:10:58
Eccentricity: 0.0001204
inclination: 98.1398°
perigee height: 764 km
apogee height: 766 km
right ascension of ascending node: 65.8451°
argument of perigee: 94.6496°
revolutions per day: 14.37971953
mean anomaly at epoch: 19.1230°
orbit number at epoch: 94183

The dashed part of the orbit path shows where the satellite is in the earth's shadow,  

DLR